Location: Cargill Incorporated Elevator
(42.7294°N, 93.7333°W)
Time: 23:15:31
(UTC+00:00)

Daily predictions for brighter satellites

Satellite Brightness Start Highest point End
(mag) Time Altitude Azimuth Time Altitude Azimuth Time Altitude Azimuth
ATLAS CENTAUR R/B 2.2 12:12:20 20° SW 12:12:20 20° SW 12:13:50 10° S
BREEZE-M DEB (TANK) 3.8 12:02:19 10° WSW 12:11:33 88° SSE 12:16:46 10° ENE
Cosmos 1140 Rocket 3.9 12:09:08 15° SW 12:12:58 37° WNW 12:17:44 10° N
Cosmos 1339 Rocket 4.4 12:07:48 10° NNW 12:13:52 71° W 12:19:58 10° S
IGS 5A 3.2 12:10:12 10° N 12:14:11 86° WNW 12:18:09 10° SSW
Cosmos 2084 Rocket 3.7 12:11:18 18° NNW 12:14:20 64° NE 12:18:30 10° SE
Cosmos 1763 Rocket 3.4 12:09:51 10° NNW 12:14:56 88° WSW 12:20:02 10° SSE
SKYMED 2 4.4 12:11:35 10° SSW 12:15:22 30° W 12:16:34 26° WNW
DMSP B5D1-3 4.4 12:10:57 10° SSE 12:16:00 88° WSW 12:21:04 10° NNW
Cosmos 371 Rocket 4.3 12:11:23 10° S 12:16:01 49° ESE 12:20:39 10° NNE
Meteor 2-10 Rocket 4.2 12:12:50 10° SW 12:17:21 31° WNW 12:22:02 10° N
NOSS 8 (E) 4.4 12:18:59 31° WNW 12:20:13 55° SW 12:23:51 10° SSE
CZ-4 R/B 4.3 12:16:18 10° N 12:20:45 38° WNW 12:25:16 10° SW
Cosmos 540 Rocket 3.4 12:16:02 10° NNW 12:21:09 90° S 12:26:15 10° SSE
USA 32 4.1 12:16:38 10° SSW 12:21:43 52° W 12:26:51 10° N
NOSS 2-2 (C) 2.7 12:19:50 10° SW 12:23:23 90° NNE 12:26:24 10° NE
Cosmos 1484 Rocket 2.3 12:21:44 10° N 12:25:07 68° WNW 12:28:32 10° SSW
SL-8 Rocket 4.1 12:20:02 10° S 12:26:20 83° E 12:32:37 10° N
Cosmos 1953 2.5 12:22:49 10° S 12:26:25 63° E 12:30:04 10° NNE
Cosmos 1656 Rocket 3.6 12:22:14 10° SSW 12:27:54 78° WNW 12:33:36 10° NNE
COSMO-SKYMED 1 3.2 12:27:29 10° SSW 12:31:07 31° W 12:34:31 11° NW
Cosmos 2082 Rocket 2.6 12:27:28 12° NW 12:32:19 42° WSW 12:37:37 10° S
Cosmos 2278 Rocket 3.3 12:31:34 16° W 12:34:17 22° NW 12:38:40 10° N
Lacrosse 5 rocket 3.4 12:32:00 10° NNW 12:34:26 16° NNE 12:36:52 10° ENE
SMAP 3.3 12:31:01 10° NNE 12:35:42 74° ESE 12:40:20 10° S
Helios 1A Rocket 2.7 12:32:40 10° S 12:35:53 45° W 12:39:08 10° NNW
Meteor 1-24 Rocket 4.0 12:30:21 10° N 12:36:25 85° E 12:42:22 10° S
Cosmos 864 Rocket 4.5 12:30:46 10° S 12:36:53 89° E 12:43:03 10° N
Cosmos 304 Rocket 3.8 12:32:51 10° SSW 12:37:36 86° ESE 12:42:24 10° NNE
Cosmos 1943 Rocket 3.5 12:35:44 16° WNW 12:37:38 19° NW 12:41:26 10° N
Cosmos 1470 Rocket 3.5 12:33:27 10° S 12:37:45 89° W 12:42:03 10° N
COSMOS 2406 3.2 12:35:54 10° NNW 12:41:37 69° WSW 12:47:19 10° SSE
Meteor 2-5 Rocket 3.9 12:37:09 10° N 12:43:05 86° E 12:49:01 10° S
ARIANE 5 R/B 3.3 12:42:10 10° NNE 12:47:12 57° E 12:52:07 10° S
CZ-2D R/B 3.2 12:45:51 10° NNE 12:48:56 62° E 12:51:59 10° S
Cosmos 1862 Rocket 4.1 12:46:07 10° NNW 12:50:02 34° W 12:53:54 10° SSW
Lacrosse 4 Rocket 2.7 12:49:05 11° W 12:51:36 18° NW 12:54:24 10° N
NOSS 2-2 (D) 2.9 12:47:59 10° SSW 12:51:37 83° SE 12:54:42 10° NE
Cosmos 1821 Rocket 4.3 12:45:40 10° S 12:52:01 77° E 12:58:20 10° N
BREEZE M DEB (TANK) 3.7 12:49:07 13° WNW 12:52:20 52° SSW 13:02:31 10° SE
GEOS 3 Rocket 3.7 12:52:21 10° SSE 12:57:31 70° SW 13:02:50 10° NW
CORIOLIS 4.1 12:52:31 10° N 12:57:57 73° WNW 13:03:19 10° SSW
MOS 1 Rocket 3.0 12:53:46 10° N 12:58:11 73° WNW 13:02:26 10° SSW
CBERS-1 4.2 12:55:01 10° N 12:59:55 50° WNW 13:04:48 10° SW
Cosmos 407 Rocket 4.3 12:58:07 10° WSW 13:02:32 29° WNW 13:07:02 10° N
USA 234 4.1 12:57:24 10° NE 13:03:51 57° SE 13:10:16 10° SSW
Okean 1-7 3.9 13:00:29 10° NNW 13:04:00 27° W 13:07:33 10° SSW
USA 307 3.8 13:01:32 10° WNW 13:05:01 28° SW 13:08:14 10° S
Cosmos 1633 Rocket 3.9 13:04:08 10° SW 13:07:48 27° WNW 13:11:29 10° NNW
SeaSat 1 2.4 13:02:58 10° NNE 13:07:52 75° WNW 13:12:44 10° SW
Cosmos 220 Rocket 3.9 13:04:12 10° NNW 13:08:20 63° WSW 13:12:24 10° S
Meteor 1-23 Rocket 4.3 23:31:29 10° S 23:37:07 83° E 23:42:45 10° NNE
SMAP 3.1 23:34:38 10° SSE 23:39:16 81° ENE 23:43:57 10° N
SOZ 4.3 23:39:21 10° NW 23:41:26 46° NNE 23:45:05 10° ESE
Cosmos 1703 3.2 23:40:32 10° SSW 23:43:49 67° W 23:47:06 10° N
USA 276 3.5 23:44:15 10° NW 23:45:52 17° N 23:47:36 10° NE
Cosmos 1821 Rocket 4.0 23:40:46 10° N 23:46:54 64° E 23:52:56 10° SSE
Okean 2 3.3 23:44:45 10° S 23:48:31 55° E 23:52:17 10° NNE
Meteor 2-13 Rocket 4.5 23:44:55 10° S 23:51:01 69° E 23:57:09 10° NNE
Cosmos 1697 Rocket 3.8 23:46:57 10° N 23:51:21 22° NE 23:55:43 10° ESE
Cosmos 1953 2.8 23:47:52 10° NNW 23:51:31 60° W 23:55:09 10° S
YAOGAN 1 3.6 23:48:15 10° ESE 23:51:39 24° ENE 23:55:03 10° NNE
DNEPR-1 R/B 4.4 23:47:24 10° SW 23:51:42 48° NW 23:55:48 10° NNE
Meteor 1-21 4.4 23:47:19 10° SSW 23:52:56 81° W 23:58:34 10° N
ISS -2.0 23:50:15 10° WNW 23:53:01 23° NNW 23:55:47 10° NE
